Tracking 19146 objects as of 23-Apr-2018
HD Live streaming from Space Station
objects crossing your sky now

CZ-3C R/B

Track CZ-3C R/B now!
10-day predictions


NORAD ID: 36591
Int'l Code: 2010-024B
Perigee: 205.7 km
Apogee: 17,053.0 km
Inclination: 20.7 °
Period: 304.7 minutes
Semi major axis: 15000 km
RCS: 15.0139 m2 (large)
Launch date: June 2, 2010
Source: People's Republic of China (PRC)
Launch site: Xichang Space Center, China (XSC)

Note: This is a ROCKET BODY
aabbcc
Your satellite tracking list
Your tracking list is empty




NASA's NSSDC Master Catalog

Two Line Element Set (TLE):
1 36591U 10024B   18113.55382925 +.00028215 +00000-0 +69358-3 0  9996
2 36591 020.6952 311.3046 5615647 138.8112 281.0534 04.72554990101220
Source of the keplerian elements: AFSPC